Find Starlink 32196

NORAD ID: 60430 Int'l Des: 2024-144 Owner: SPXS Country: US Constellation: starlink operational
LEOCIRCULAR

リアルタイム位置

3D地球を読み込み中...

Starlink 32196について

説明を読み込み中...

次回通過

Passes for default location (London). Set your location on the main map for personalized predictions.

高度履歴

Loading altitude history...

軌道要素

1 60430U 24144F 26123.69820498 .00000704 00000-0 31959-4 0 9990
2 60430 53.1619 321.4494 0000857 56.4824 303.6261 15.34396572 97738
Epoch: May 3, 2026 • Age: 9 hours

現在のステータス

高度 473.4 km
速度 7.63 km/s
衛星直下点 -32.62°S, 76.8°W
打ち上げ日 Aug 12, 2024
運用期間 1.7 years
タイプ internet

技術仕様

分類 Payload
質量 730.00 kg
乾燥質量 700.00 kg
総質量 730.00 kg
長さ 0.30 m
直径 4.10 m
スパン 29.00 m
形状 Box + pan
製造者 SPXS
バスタイプ Starlink V2M
フェーズステータス In Orbit
所有者/国 SPXS/US

Most Searched